HVN144 VVTS-WAAA

Flight info

Callsign HVN144
Flight time 3h 12m
Altitude 35000
Route ELSAS5A ELSAS M768 MOXON/N0467F350 M768 BRU DCT BPN W37 GAMAL
Aircraft A321/M-SDE3FGHIRWY/LB1

Departure

Time 2026-04-21 11:46
Airport Tan Son Nhat International Airport (VVTS)

Arrival

Time 2026-04-21 14:58
Airport Sultan Hasanuddin International Airport (WAAA)
Time Latitude Longitude Altitude Speed Heading
2026-04-21 11:06 10.81771 106.66442 37 ft 0 kts 159°
2026-04-21 11:15 10.81772 106.66442 37 ft 0 kts 159°
2026-04-21 11:35 10.81772 106.66441 37 ft 0 kts 159°
2026-04-21 11:37 10.81773 106.66441 37 ft 2 kts 159°
2026-04-21 11:38 10.81797 106.66432 37 ft 4 kts 156°
2026-04-21 11:38 10.81822 106.66420 37 ft 4 kts 151°
2026-04-21 11:38 10.81844 106.66405 37 ft 4 kts 139°
2026-04-21 11:38 10.81860 106.66386 35 ft 4 kts 100°
2026-04-21 11:39 10.81861 106.66375 36 ft 2 kts 68°
2026-04-21 11:41 10.81867 106.66389 36 ft 5 kts 68°
2026-04-21 11:41 10.81880 106.66424 37 ft 6 kts 68°
2026-04-21 11:41 10.81896 106.66465 35 ft 7 kts 68°
2026-04-21 11:42 10.81914 106.66515 37 ft 8 kts 70°
2026-04-21 11:42 10.81936 106.66573 37 ft 10 kts 69°
2026-04-21 11:42 10.81961 106.66640 37 ft 10 kts 68°
2026-04-21 11:42 10.81989 106.66711 37 ft 11 kts 69°
2026-04-21 11:43 10.82018 106.66788 37 ft 12 kts 69°
2026-04-21 11:43 10.82051 106.66869 37 ft 13 kts 60°
2026-04-21 11:43 10.82122 106.66938 34 ft 15 kts 39°
2026-04-21 11:43 10.82204 106.67006 35 ft 15 kts 38°
2026-04-21 11:44 10.82279 106.67007 35 ft 9 kts 333°
2026-04-21 11:44 10.82327 106.66966 35 ft 9 kts 299°
2026-04-21 11:44 10.82363 106.66938 35 ft 5 kts 295°
2026-04-21 11:44 10.82354 106.66905 35 ft 0 kts 248°
2026-04-21 11:45 10.82348 106.66890 35 ft 10 kts 248°
2026-04-21 11:45 10.82216 106.66544 34 ft 94 kts 249°
2026-04-21 11:45 10.81891 106.65695 37 ft 161 kts 249°
2026-04-21 11:46 10.81444 106.64536 571 ft 182 kts 246°
2026-04-21 11:46 10.80987 106.63344 1236 ft 182 kts 245°
2026-04-21 11:46 10.80509 106.62078 1434 ft 202 kts 245°
2026-04-21 11:46 10.79978 106.60679 1635 ft 220 kts 245°
2026-04-21 11:47 10.79424 106.59206 2018 ft 226 kts 246°
2026-04-21 11:47 10.78860 106.57702 2471 ft 230 kts 246°
2026-04-21 11:47 10.78043 106.56334 3018 ft 226 kts 216°
2026-04-21 11:47 10.76648 106.55676 3575 ft 223 kts 183°
2026-04-21 11:48 10.75099 106.55886 3931 ft 235 kts 154°
2026-04-21 11:48 10.73786 106.56942 4153 ft 253 kts 124°
2026-04-21 11:48 10.72805 106.58495 4525 ft 267 kts 122°
2026-04-21 11:48 10.71754 106.60081 5106 ft 273 kts 123°
2026-04-21 11:49 10.70671 106.61657 5728 ft 278 kts 123°
2026-04-21 11:49 10.69535 106.63289 6387 ft 281 kts 123°
2026-04-21 11:49 10.68418 106.64900 7014 ft 283 kts 123°
2026-04-21 11:49 10.67283 106.66545 7663 ft 285 kts 123°
2026-04-21 11:50 10.66145 106.68199 8320 ft 286 kts 123°
2026-04-21 11:50 10.65005 106.69864 8964 ft 288 kts 123°
2026-04-21 11:50 10.63858 106.71544 9580 ft 290 kts 123°
2026-04-21 11:50 10.62705 106.73240 10150 ft 293 kts 123°
2026-04-21 11:51 10.61507 106.75001 10309 ft 313 kts 123°
2026-04-21 11:51 10.60234 106.76873 10433 ft 332 kts 123°
2026-04-21 11:51 10.58880 106.78862 10546 ft 350 kts 123°
2026-04-21 11:51 10.57458 106.80949 10678 ft 367 kts 123°
2026-04-21 11:52 10.55976 106.83120 10907 ft 379 kts 123°
2026-04-21 11:52 10.54467 106.85325 11371 ft 383 kts 123°
2026-04-21 11:52 10.52938 106.87556 11865 ft 386 kts 124°
2026-04-21 11:52 10.51396 106.89805 12362 ft 389 kts 123°
2026-04-21 11:53 10.49845 106.92074 12855 ft 393 kts 124°
2026-04-21 11:53 10.48284 106.94365 13351 ft 396 kts 124°
2026-04-21 11:53 10.46711 106.96673 13828 ft 399 kts 124°
2026-04-21 11:53 10.45124 106.98999 14253 ft 402 kts 124°
2026-04-21 11:54 10.43525 107.01342 14710 ft 405 kts 124°
2026-04-21 11:54 10.41915 107.03699 15149 ft 408 kts 124°
2026-04-21 11:54 10.40311 107.06040 15594 ft 411 kts 124°
2026-04-21 11:54 10.38674 107.08429 16039 ft 414 kts 124°
2026-04-21 11:55 10.37024 107.10836 16483 ft 417 kts 124°
2026-04-21 11:55 10.35365 107.13254 16932 ft 419 kts 124°
2026-04-21 11:55 10.33695 107.15695 17364 ft 422 kts 124°
2026-04-21 11:55 10.32014 107.18154 17781 ft 425 kts 124°
2026-04-21 11:56 10.30319 107.20636 18180 ft 428 kts 124°
2026-04-21 11:56 10.28616 107.23128 18521 ft 431 kts 124°
2026-04-21 11:56 10.26900 107.25631 18875 ft 433 kts 124°
2026-04-21 11:56 10.25174 107.28146 19215 ft 435 kts 124°
2026-04-21 11:57 10.23438 107.30669 19584 ft 437 kts 124°
2026-04-21 11:57 10.21700 107.33201 19925 ft 439 kts 124°
2026-04-21 11:57 10.19953 107.35752 20263 ft 441 kts 124°
2026-04-21 11:57 10.18200 107.38318 20598 ft 443 kts 123°
2026-04-21 11:58 10.16438 107.40898 20927 ft 446 kts 123°
2026-04-21 11:58 10.14666 107.43488 21246 ft 448 kts 124°
2026-04-21 11:58 10.12880 107.46086 21561 ft 450 kts 124°
2026-04-21 11:58 10.11083 107.48695 21867 ft 452 kts 124°
2026-04-21 11:59 10.09278 107.51315 22185 ft 454 kts 124°
2026-04-21 11:59 10.07463 107.53948 22497 ft 456 kts 124°
2026-04-21 11:59 10.05644 107.56595 22810 ft 458 kts 123°
2026-04-21 11:59 10.03844 107.59224 23111 ft 461 kts 123°
2026-04-21 12:00 10.01986 107.61938 23414 ft 463 kts 123°
2026-04-21 12:00 10.00168 107.64590 23669 ft 465 kts 123°
2026-04-21 12:00 9.98314 107.67287 23920 ft 467 kts 123°
2026-04-21 12:00 9.96451 107.69995 24181 ft 469 kts 123°
2026-04-21 12:01 9.94581 107.72712 24434 ft 471 kts 124°
2026-04-21 12:01 9.92701 107.75443 24683 ft 472 kts 124°
2026-04-21 12:01 9.90814 107.78179 24928 ft 474 kts 124°
2026-04-21 12:01 9.88924 107.80923 25181 ft 476 kts 124°
2026-04-21 12:02 9.87028 107.83680 25437 ft 477 kts 123°
2026-04-21 12:02 9.83210 107.89222 25942 ft 481 kts 124°
2026-04-21 12:02 9.81292 107.92008 26202 ft 483 kts 124°
2026-04-21 12:03 9.79366 107.94806 26453 ft 485 kts 123°
2026-04-21 12:03 9.77432 107.97615 26748 ft 485 kts 124°
2026-04-21 12:03 9.75505 108.00410 27113 ft 484 kts 124°
2026-04-21 12:03 9.73579 108.03201 27461 ft 483 kts 124°
2026-04-21 12:04 9.71651 108.05989 27801 ft 482 kts 124°
2026-04-21 12:04 9.69727 108.08769 28157 ft 482 kts 124°
2026-04-21 12:04 9.67808 108.11548 28504 ft 481 kts 123°
2026-04-21 12:04 9.65890 108.14328 28846 ft 481 kts 123°
2026-04-21 12:05 9.63977 108.17106 29197 ft 480 kts 123°
2026-04-21 12:05 9.62069 108.19879 29548 ft 479 kts 123°
2026-04-21 12:05 9.60166 108.22643 29889 ft 479 kts 123°
2026-04-21 12:05 9.58259 108.25411 30177 ft 478 kts 123°
2026-04-21 12:06 9.56352 108.28170 30463 ft 478 kts 124°
2026-04-21 12:06 9.54442 108.30929 30742 ft 478 kts 124°
2026-04-21 12:06 9.52538 108.33677 31021 ft 477 kts 124°
2026-04-21 12:06 9.50630 108.36431 31303 ft 477 kts 124°
2026-04-21 12:07 9.48729 108.39181 31583 ft 476 kts 124°
2026-04-21 12:07 9.46856 108.41893 31862 ft 476 kts 124°
2026-04-21 12:07 9.44960 108.44636 32140 ft 476 kts 124°
2026-04-21 12:07 9.43060 108.47384 32423 ft 475 kts 124°
2026-04-21 12:08 9.41164 108.50121 32711 ft 475 kts 124°
2026-04-21 12:08 9.39266 108.52859 32979 ft 474 kts 124°
2026-04-21 12:08 9.37373 108.55589 33252 ft 474 kts 124°
2026-04-21 12:08 9.35480 108.58318 33534 ft 473 kts 124°
2026-04-21 12:09 9.33586 108.61046 33811 ft 473 kts 124°
2026-04-21 12:09 9.31697 108.63769 34053 ft 472 kts 124°
2026-04-21 12:09 9.29812 108.66490 34287 ft 472 kts 124°
2026-04-21 12:09 9.27929 108.69210 34524 ft 471 kts 124°
2026-04-21 12:10 9.26051 108.71930 34750 ft 471 kts 124°
2026-04-21 12:10 9.22283 108.77373 34860 ft 472 kts 124°
2026-04-21 12:11 9.18505 108.82811 34860 ft 473 kts 124°
2026-04-21 12:11 9.14728 108.88261 34860 ft 473 kts 124°
2026-04-21 12:12 9.10952 108.93695 34861 ft 472 kts 124°
2026-04-21 12:12 9.07197 108.99096 34861 ft 472 kts 124°
2026-04-21 12:13 9.03410 109.04527 34863 ft 473 kts 124°
2026-04-21 12:13 8.99619 109.09966 34867 ft 473 kts 124°
2026-04-21 12:14 8.95835 109.15409 34874 ft 473 kts 124°
2026-04-21 12:14 8.92047 109.20859 34878 ft 474 kts 125°
2026-04-21 12:15 8.88256 109.26308 34880 ft 474 kts 125°
2026-04-21 12:15 8.84464 109.31758 34885 ft 474 kts 125°
2026-04-21 12:16 8.80669 109.37197 34884 ft 474 kts 125°
2026-04-21 12:16 8.76872 109.42641 34885 ft 474 kts 125°
2026-04-21 12:17 8.73107 109.48049 34885 ft 474 kts 125°
2026-04-21 12:17 8.69310 109.53491 34884 ft 474 kts 125°
2026-04-21 12:18 8.65507 109.58928 34885 ft 474 kts 125°
2026-04-21 12:18 8.61706 109.64364 34883 ft 473 kts 125°
2026-04-21 12:19 8.57911 109.69797 34881 ft 473 kts 125°
2026-04-21 12:19 8.54116 109.75238 34884 ft 473 kts 125°
2026-04-21 12:20 8.50319 109.80671 34885 ft 474 kts 125°
2026-04-21 12:20 8.46522 109.86110 34883 ft 474 kts 125°
2026-04-21 12:21 8.42721 109.91547 34882 ft 474 kts 126°
2026-04-21 12:21 8.38908 109.96985 34883 ft 474 kts 126°
2026-04-21 12:22 8.35120 110.02388 34887 ft 475 kts 126°
2026-04-21 12:22 8.31311 110.07832 34887 ft 475 kts 126°
2026-04-21 12:23 8.27502 110.13276 34889 ft 475 kts 126°
2026-04-21 12:23 8.23690 110.18714 34887 ft 474 kts 126°
2026-04-21 12:24 8.19874 110.24144 34889 ft 474 kts 126°
2026-04-21 12:24 8.16049 110.29560 34888 ft 473 kts 126°
2026-04-21 12:25 8.12875 110.34052 34890 ft 473 kts 126°
2026-04-21 12:25 8.08413 110.40378 34890 ft 473 kts 126°
2026-04-21 12:26 8.04601 110.45777 34887 ft 472 kts 126°
2026-04-21 12:26 8.01432 110.50265 34891 ft 472 kts 126°
2026-04-21 12:27 7.97619 110.55656 34895 ft 471 kts 126°
2026-04-21 12:27 7.93821 110.61035 34897 ft 471 kts 126°
2026-04-21 12:28 7.90031 110.66417 34893 ft 470 kts 126°
2026-04-21 12:28 7.86236 110.71781 34892 ft 470 kts 126°
2026-04-21 12:29 7.82430 110.77139 34888 ft 469 kts 126°
2026-04-21 12:29 7.78638 110.82494 34887 ft 469 kts 126°
2026-04-21 12:30 7.74878 110.87821 34890 ft 469 kts 126°
2026-04-21 12:30 7.71087 110.93179 34890 ft 469 kts 126°
2026-04-21 12:31 7.67294 110.98539 34889 ft 469 kts 127°
2026-04-21 12:31 7.63504 111.03891 34889 ft 469 kts 126°
2026-04-21 12:32 7.59708 111.09247 34886 ft 470 kts 127°
2026-04-21 12:32 7.55901 111.14600 34892 ft 470 kts 127°
2026-04-21 12:33 7.52107 111.19958 34890 ft 470 kts 126°
2026-04-21 12:33 7.48311 111.25320 34885 ft 470 kts 127°
2026-04-21 12:34 7.44499 111.30676 34886 ft 470 kts 127°
2026-04-21 12:34 7.40715 111.35998 34888 ft 470 kts 127°
2026-04-21 12:35 7.36904 111.41357 34887 ft 470 kts 127°
2026-04-21 12:35 7.33099 111.46715 34889 ft 471 kts 127°
2026-04-21 12:36 7.29292 111.52084 34892 ft 471 kts 127°
2026-04-21 12:36 7.25478 111.57444 34887 ft 471 kts 127°
2026-04-21 12:37 7.21659 111.62807 34888 ft 471 kts 127°
2026-04-21 12:37 7.17844 111.68164 34884 ft 471 kts 127°
2026-04-21 12:38 7.14022 111.73523 34886 ft 471 kts 127°
2026-04-21 12:38 7.10199 111.78884 34885 ft 471 kts 127°
2026-04-21 12:39 7.06376 111.84244 34888 ft 471 kts 127°
2026-04-21 12:39 7.02554 111.89608 34889 ft 471 kts 127°
2026-04-21 12:40 6.98755 111.94928 34887 ft 471 kts 127°
2026-04-21 12:40 6.94932 112.00292 34888 ft 471 kts 127°
2026-04-21 12:41 6.91107 112.05649 34890 ft 471 kts 127°
2026-04-21 12:41 6.87277 112.11005 34888 ft 471 kts 127°
2026-04-21 12:42 6.83445 112.16356 34887 ft 471 kts 127°
2026-04-21 12:42 6.79617 112.21717 34886 ft 472 kts 127°
2026-04-21 12:43 6.75794 112.27078 34891 ft 472 kts 127°
2026-04-21 12:43 6.71968 112.32442 34895 ft 472 kts 127°
2026-04-21 12:44 6.68139 112.37798 34884 ft 472 kts 127°
2026-04-21 12:44 6.64332 112.43113 34886 ft 472 kts 127°
2026-04-21 12:45 6.60494 112.48467 34888 ft 472 kts 127°
2026-04-21 12:45 6.56662 112.53822 34889 ft 472 kts 127°
2026-04-21 12:46 6.52833 112.59178 34889 ft 472 kts 127°
2026-04-21 12:46 6.48995 112.64530 34891 ft 471 kts 127°
2026-04-21 12:47 6.45151 112.69869 34888 ft 471 kts 127°
2026-04-21 12:47 6.41303 112.75205 34888 ft 471 kts 127°
2026-04-21 12:48 6.37455 112.80543 34889 ft 471 kts 127°
2026-04-21 12:48 6.33639 112.85849 34890 ft 471 kts 127°
2026-04-21 12:49 6.29798 112.91189 34883 ft 471 kts 127°
2026-04-21 12:49 6.25949 112.96530 34890 ft 472 kts 127°
2026-04-21 12:50 6.22105 113.01870 34889 ft 472 kts 127°
2026-04-21 12:50 6.18252 113.07212 34885 ft 472 kts 127°
2026-04-21 12:51 6.14402 113.12549 34887 ft 472 kts 127°
2026-04-21 12:51 6.10555 113.17891 34882 ft 472 kts 127°
2026-04-21 12:52 6.06706 113.23228 34888 ft 472 kts 127°
2026-04-21 12:52 6.02857 113.28570 34883 ft 472 kts 127°
2026-04-21 12:53 5.99010 113.33903 34884 ft 472 kts 127°
2026-04-21 12:53 5.95158 113.39241 34882 ft 472 kts 127°
2026-04-21 12:54 5.91344 113.44543 34881 ft 471 kts 127°
2026-04-21 12:54 5.87513 113.49888 34887 ft 471 kts 127°
2026-04-21 12:55 5.83676 113.55225 34885 ft 471 kts 127°
2026-04-21 12:55 5.79827 113.60559 34881 ft 471 kts 127°
2026-04-21 12:56 5.75990 113.65889 34882 ft 471 kts 127°
2026-04-21 12:56 5.72157 113.71226 34880 ft 471 kts 127°
2026-04-21 12:57 5.68323 113.76553 34878 ft 471 kts 127°
2026-04-21 12:57 5.64477 113.81878 34883 ft 471 kts 127°
2026-04-21 12:58 5.60647 113.87204 34883 ft 471 kts 127°
2026-04-21 12:58 5.56809 113.92534 34878 ft 471 kts 127°
2026-04-21 12:59 5.52975 113.97854 34883 ft 471 kts 127°
2026-04-21 12:59 5.49140 114.03176 34874 ft 471 kts 127°
2026-04-21 13:00 5.45324 114.08462 34875 ft 471 kts 127°
2026-04-21 13:00 5.41485 114.13780 34875 ft 471 kts 127°
2026-04-21 13:01 5.37643 114.19102 34874 ft 471 kts 127°
2026-04-21 13:01 5.33807 114.24424 34873 ft 471 kts 127°
2026-04-21 13:02 5.29967 114.29745 34870 ft 471 kts 127°
2026-04-21 13:02 5.24201 114.37732 34872 ft 471 kts 127°
2026-04-21 13:03 5.20358 114.43049 34874 ft 471 kts 127°
2026-04-21 13:03 5.16517 114.48374 34879 ft 471 kts 127°
2026-04-21 13:04 5.12674 114.53698 34876 ft 471 kts 127°
2026-04-21 13:04 5.08855 114.58976 34870 ft 471 kts 127°
2026-04-21 13:05 5.04646 114.63962 34864 ft 467 kts 144°
2026-04-21 13:05 5.01883 114.65630 34866 ft 463 kts 159°
2026-04-21 13:05 4.98817 114.66565 34861 ft 460 kts 168°
2026-04-21 13:06 4.92560 114.67986 34857 ft 462 kts 168°
2026-04-21 13:06 4.86286 114.69415 34855 ft 463 kts 168°
2026-04-21 13:07 4.80005 114.70859 34855 ft 463 kts 168°
2026-04-21 13:07 4.73712 114.72301 34859 ft 464 kts 168°
2026-04-21 13:08 4.67413 114.73748 34866 ft 465 kts 167°
2026-04-21 13:08 4.61150 114.75185 34873 ft 465 kts 167°
2026-04-21 13:09 4.54840 114.76632 34876 ft 465 kts 167°
2026-04-21 13:09 4.48527 114.78081 34879 ft 465 kts 167°
2026-04-21 13:10 4.42218 114.79528 34886 ft 465 kts 167°
2026-04-21 13:10 4.35901 114.80975 34888 ft 465 kts 167°
2026-04-21 13:11 4.29595 114.82418 34892 ft 465 kts 167°
2026-04-21 13:11 4.23282 114.83861 34898 ft 465 kts 167°
2026-04-21 13:12 4.16977 114.85304 34891 ft 465 kts 167°
2026-04-21 13:12 4.10674 114.86753 34900 ft 465 kts 167°
2026-04-21 13:13 4.04376 114.88202 34899 ft 465 kts 167°
2026-04-21 13:13 3.98113 114.89635 34904 ft 464 kts 167°
2026-04-21 13:14 3.91815 114.91071 34913 ft 464 kts 167°
2026-04-21 13:14 3.85516 114.92514 34913 ft 464 kts 167°
2026-04-21 13:15 3.79225 114.93953 34915 ft 464 kts 167°
2026-04-21 13:15 3.72933 114.95394 34917 ft 464 kts 167°
2026-04-21 13:16 3.66642 114.96837 34923 ft 464 kts 167°
2026-04-21 13:16 3.60337 114.98276 34920 ft 465 kts 167°
2026-04-21 13:17 3.54031 114.99720 34922 ft 465 kts 167°
2026-04-21 13:17 3.47714 115.01163 34922 ft 466 kts 167°
2026-04-21 13:18 3.41392 115.02606 34922 ft 466 kts 167°
2026-04-21 13:18 3.35107 115.04044 34935 ft 467 kts 167°
2026-04-21 13:19 3.28772 115.05492 34929 ft 467 kts 167°
2026-04-21 13:19 3.22437 115.06939 34934 ft 467 kts 167°
2026-04-21 13:20 3.16104 115.08389 34939 ft 467 kts 167°
2026-04-21 13:20 3.09770 115.09845 34944 ft 467 kts 167°
2026-04-21 13:21 3.03440 115.11294 34953 ft 467 kts 167°
2026-04-21 13:21 2.97110 115.12733 34954 ft 466 kts 167°
2026-04-21 13:22 2.90779 115.14173 34963 ft 466 kts 167°
2026-04-21 13:22 2.84459 115.15618 34970 ft 466 kts 167°
2026-04-21 13:23 2.78133 115.17062 34976 ft 466 kts 167°
2026-04-21 13:23 2.71820 115.18508 34978 ft 466 kts 167°
2026-04-21 13:24 2.66563 115.19709 34978 ft 466 kts 167°
2026-04-21 13:24 2.60241 115.21152 34986 ft 466 kts 167°
2026-04-21 13:25 2.52895 115.22820 34986 ft 466 kts 167°
2026-04-21 13:25 2.47599 115.24029 34984 ft 466 kts 167°
2026-04-21 13:26 2.41290 115.25472 34985 ft 465 kts 167°
2026-04-21 13:26 2.34976 115.26918 34987 ft 465 kts 167°
2026-04-21 13:27 2.28708 115.28351 34987 ft 465 kts 167°
2026-04-21 13:27 2.22399 115.29789 34979 ft 465 kts 167°
2026-04-21 13:28 2.16091 115.31228 34978 ft 465 kts 167°
2026-04-21 13:28 2.09785 115.32662 34985 ft 465 kts 167°
2026-04-21 13:29 2.03491 115.34095 34983 ft 464 kts 167°
2026-04-21 13:29 1.97187 115.35534 34980 ft 464 kts 167°
2026-04-21 13:30 1.90903 115.36974 34987 ft 463 kts 167°
2026-04-21 13:30 1.84616 115.38409 34980 ft 463 kts 167°
2026-04-21 13:31 1.78328 115.39836 34981 ft 463 kts 167°
2026-04-21 13:31 1.72082 115.41261 34972 ft 463 kts 167°
2026-04-21 13:32 1.65792 115.42698 34969 ft 464 kts 167°
2026-04-21 13:32 1.59504 115.44132 34971 ft 464 kts 167°
2026-04-21 13:33 1.53214 115.45563 34973 ft 464 kts 167°
2026-04-21 13:33 1.46916 115.46999 34970 ft 464 kts 167°
2026-04-21 13:34 1.40633 115.48433 34967 ft 464 kts 167°
2026-04-21 13:34 1.34341 115.49866 34966 ft 464 kts 167°
2026-04-21 13:35 1.28051 115.51301 34969 ft 463 kts 167°
2026-04-21 13:35 1.21805 115.52722 34969 ft 463 kts 167°
2026-04-21 13:36 1.15519 115.54158 34964 ft 463 kts 167°
2026-04-21 13:36 1.09236 115.55592 34974 ft 463 kts 167°
2026-04-21 13:37 1.02961 115.57022 34971 ft 463 kts 167°
2026-04-21 13:37 0.96679 115.58454 34964 ft 463 kts 167°
2026-04-21 13:38 0.90392 115.59878 34962 ft 463 kts 167°
2026-04-21 13:38 0.84106 115.61311 34950 ft 463 kts 167°
2026-04-21 13:39 0.77819 115.62750 34949 ft 464 kts 167°
2026-04-21 13:39 0.71528 115.64181 34945 ft 464 kts 167°
2026-04-21 13:40 0.65233 115.65615 34936 ft 464 kts 167°
2026-04-21 13:40 0.58987 115.67035 34929 ft 464 kts 167°
2026-04-21 13:41 0.52697 115.68469 34935 ft 464 kts 167°
2026-04-21 13:41 0.46404 115.69902 34920 ft 464 kts 167°
2026-04-21 13:42 0.40113 115.71335 34919 ft 464 kts 167°
2026-04-21 13:42 0.33814 115.72767 34916 ft 464 kts 167°
2026-04-21 13:43 0.27524 115.74201 34911 ft 464 kts 167°
2026-04-21 13:43 0.21219 115.75650 34912 ft 464 kts 167°
2026-04-21 13:44 0.14919 115.77090 34910 ft 465 kts 167°
2026-04-21 13:44 0.08608 115.78522 34909 ft 465 kts 167°
2026-04-21 13:45 0.02298 115.79947 34910 ft 465 kts 167°
2026-04-21 13:45 -0.03975 115.81374 34909 ft 465 kts 167°
2026-04-21 13:46 -0.10287 115.82823 34904 ft 466 kts 167°
2026-04-21 13:46 -0.16601 115.84268 34910 ft 466 kts 167°
2026-04-21 13:47 -0.22923 115.85703 34910 ft 466 kts 167°
2026-04-21 13:47 -0.29240 115.87139 34909 ft 466 kts 167°
2026-04-21 13:48 -0.35556 115.88581 34918 ft 465 kts 167°
2026-04-21 13:48 -0.41866 115.90016 34912 ft 465 kts 167°
2026-04-21 13:49 -0.48181 115.91454 34916 ft 465 kts 167°
2026-04-21 13:49 -0.54495 115.92894 34916 ft 465 kts 167°
2026-04-21 13:50 -0.60814 115.94331 34920 ft 466 kts 167°
2026-04-21 13:50 -0.67086 115.95767 34921 ft 466 kts 167°
2026-04-21 13:51 -0.73404 115.97209 34915 ft 466 kts 167°
2026-04-21 13:51 -0.79734 115.98648 34920 ft 466 kts 167°
2026-04-21 13:52 -0.86062 116.00089 34925 ft 466 kts 167°
2026-04-21 13:52 -0.92388 116.01533 34921 ft 466 kts 167°
2026-04-21 13:53 -0.98721 116.02979 34925 ft 467 kts 167°
2026-04-21 13:53 -1.05013 116.04405 34927 ft 467 kts 167°
2026-04-21 13:54 -1.11360 116.05851 34925 ft 467 kts 166°
2026-04-21 13:54 -1.17699 116.07302 34929 ft 468 kts 166°
2026-04-21 13:55 -1.24045 116.08752 34926 ft 468 kts 166°
2026-04-21 13:55 -1.30399 116.10192 34930 ft 468 kts 166°
2026-04-21 13:56 -1.36752 116.11640 34936 ft 468 kts 166°
2026-04-21 13:56 -1.43102 116.13090 34923 ft 468 kts 166°
2026-04-21 13:57 -1.49455 116.14537 34925 ft 468 kts 166°
2026-04-21 13:57 -1.55807 116.15982 34927 ft 468 kts 166°
2026-04-21 13:58 -1.62154 116.17431 34924 ft 468 kts 166°
2026-04-21 13:58 -1.68461 116.18873 34915 ft 468 kts 166°
2026-04-21 13:59 -1.74815 116.20321 34915 ft 468 kts 166°
2026-04-21 13:59 -1.81164 116.21769 34913 ft 468 kts 166°
2026-04-21 14:00 -1.87529 116.23222 34910 ft 469 kts 166°
2026-04-21 14:00 -1.93890 116.24674 34911 ft 469 kts 166°
2026-04-21 14:01 -2.00252 116.26123 34909 ft 469 kts 166°
2026-04-21 14:01 -2.06610 116.27569 34914 ft 469 kts 166°
2026-04-21 14:02 -2.12978 116.29021 34909 ft 469 kts 166°
2026-04-21 14:03 -2.22494 116.31192 34907 ft 470 kts 166°
2026-04-21 14:03 -2.28871 116.32653 34913 ft 470 kts 166°
2026-04-21 14:04 -2.35242 116.34110 34908 ft 470 kts 166°
2026-04-21 14:04 -2.41621 116.35570 34909 ft 470 kts 166°
2026-04-21 14:05 -2.47992 116.37026 34903 ft 470 kts 166°
2026-04-21 14:05 -2.54373 116.38475 34906 ft 470 kts 166°
2026-04-21 14:06 -2.60742 116.39924 34907 ft 470 kts 166°
2026-04-21 14:06 -2.67127 116.41378 34907 ft 470 kts 166°
2026-04-21 14:07 -2.73498 116.42835 34892 ft 470 kts 166°
2026-04-21 14:07 -2.79830 116.44287 34905 ft 470 kts 166°
2026-04-21 14:08 -2.86207 116.45741 34902 ft 470 kts 166°
2026-04-21 14:08 -2.92583 116.47195 34905 ft 470 kts 166°
2026-04-21 14:09 -2.98958 116.48649 34898 ft 470 kts 166°
2026-04-21 14:09 -3.05332 116.50111 34906 ft 470 kts 166°
2026-04-21 14:10 -3.11700 116.51568 34902 ft 470 kts 166°
2026-04-21 14:10 -3.18077 116.53016 34913 ft 470 kts 166°
2026-04-21 14:11 -3.24450 116.54474 34908 ft 470 kts 166°
2026-04-21 14:11 -3.30825 116.55940 34901 ft 470 kts 166°
2026-04-21 14:12 -3.37196 116.57399 34915 ft 470 kts 166°
2026-04-21 14:12 -3.43570 116.58848 34913 ft 470 kts 166°
2026-04-21 14:13 -3.49898 116.60295 34914 ft 470 kts 166°
2026-04-21 14:13 -3.56267 116.61758 34923 ft 470 kts 166°
2026-04-21 14:14 -3.62635 116.63205 34918 ft 470 kts 167°
2026-04-21 14:14 -3.69008 116.64660 34919 ft 470 kts 166°
2026-04-21 14:15 -3.75374 116.66120 34922 ft 470 kts 166°
2026-04-21 14:15 -3.81748 116.67583 34918 ft 470 kts 166°
2026-04-21 14:16 -3.88125 116.69040 34918 ft 470 kts 166°
2026-04-21 14:16 -3.94507 116.70502 34921 ft 470 kts 166°
2026-04-21 14:17 -4.00882 116.71959 34917 ft 470 kts 166°
2026-04-21 14:17 -4.07264 116.73418 34922 ft 470 kts 166°
2026-04-21 14:18 -4.13649 116.74879 34923 ft 471 kts 166°
2026-04-21 14:18 -4.20032 116.76336 34922 ft 471 kts 166°
2026-04-21 14:19 -4.26377 116.77792 34925 ft 471 kts 166°
2026-04-21 14:19 -4.32761 116.79263 34921 ft 471 kts 166°
2026-04-21 14:20 -4.39146 116.80727 34926 ft 471 kts 166°
2026-04-21 14:20 -4.45535 116.82192 34922 ft 471 kts 166°
2026-04-21 14:21 -4.51920 116.83648 34915 ft 471 kts 166°
2026-04-21 14:21 -4.58310 116.85117 34915 ft 471 kts 166°
2026-04-21 14:22 -4.64695 116.86585 34918 ft 471 kts 166°
2026-04-21 14:22 -4.67773 116.87647 34920 ft 469 kts 152°
2026-04-21 14:22 -4.70477 116.89443 34913 ft 466 kts 137°
2026-04-21 14:22 -4.72622 116.91858 34912 ft 464 kts 122°
2026-04-21 14:23 -4.73664 116.93722 34911 ft 462 kts 112°
2026-04-21 14:23 -4.75561 116.99867 34901 ft 462 kts 105°
2026-04-21 14:24 -4.77594 117.07085 34901 ft 464 kts 105°
2026-04-21 14:24 -4.79068 117.12295 34914 ft 464 kts 105°
2026-04-21 14:25 -4.80842 117.18524 34912 ft 465 kts 105°
2026-04-21 14:25 -4.82613 117.24715 34914 ft 465 kts 105°
2026-04-21 14:26 -4.84386 117.30953 34919 ft 465 kts 105°
2026-04-21 14:26 -4.86148 117.37197 34925 ft 465 kts 105°
2026-04-21 14:27 -4.87915 117.43440 34924 ft 465 kts 105°
2026-04-21 14:27 -4.89682 117.49677 34917 ft 465 kts 105°
2026-04-21 14:28 -4.91456 117.55925 34926 ft 465 kts 105°
2026-04-21 14:28 -4.93223 117.62166 34923 ft 465 kts 105°
2026-04-21 14:29 -4.94983 117.68402 34924 ft 465 kts 105°
2026-04-21 14:29 -4.96746 117.74641 34929 ft 465 kts 105°
2026-04-21 14:30 -4.98495 117.80837 34923 ft 465 kts 105°
2026-04-21 14:30 -5.00265 117.87071 34929 ft 465 kts 105°
2026-04-21 14:31 -5.02030 117.93304 34932 ft 464 kts 105°
2026-04-21 14:31 -5.03789 117.99536 34923 ft 464 kts 105°
2026-04-21 14:32 -5.05543 118.05768 34930 ft 464 kts 105°
2026-04-21 14:32 -5.07295 118.11998 34929 ft 464 kts 105°
2026-04-21 14:33 -5.09048 118.18219 34924 ft 464 kts 105°
2026-04-21 14:33 -5.10797 118.24447 34930 ft 464 kts 105°
2026-04-21 14:34 -5.12548 118.30674 34925 ft 464 kts 105°
2026-04-21 14:34 -5.14283 118.36811 34750 ft 447 kts 105°
2026-04-21 14:34 -5.15110 118.39734 34610 ft 437 kts 105°
2026-04-21 14:35 -5.15930 118.42640 34331 ft 430 kts 105°
2026-04-21 14:35 -5.16738 118.45514 33965 ft 426 kts 105°
2026-04-21 14:35 -5.17537 118.48362 33535 ft 422 kts 105°
2026-04-21 14:35 -5.18327 118.51183 33081 ft 419 kts 105°
2026-04-21 14:36 -5.19117 118.53989 32635 ft 417 kts 105°
2026-04-21 14:36 -5.19907 118.56782 32192 ft 414 kts 105°
2026-04-21 14:36 -5.20688 118.59551 31766 ft 411 kts 105°
2026-04-21 14:36 -5.21461 118.62297 31343 ft 409 kts 104°
2026-04-21 14:37 -5.22229 118.65032 30930 ft 406 kts 104°
2026-04-21 14:37 -5.22993 118.67752 30521 ft 404 kts 104°
2026-04-21 14:37 -5.23752 118.70459 30129 ft 402 kts 104°
2026-04-21 14:37 -5.24507 118.73147 29777 ft 397 kts 104°
2026-04-21 14:38 -5.25253 118.75796 29447 ft 391 kts 104°
2026-04-21 14:38 -5.25979 118.78388 29307 ft 381 kts 104°
2026-04-21 14:38 -5.26690 118.80914 29175 ft 371 kts 104°
2026-04-21 14:38 -5.27366 118.83380 28980 ft 362 kts 100°
2026-04-21 14:39 -5.27611 118.85864 28667 ft 356 kts 91°
2026-04-21 14:39 -5.27694 118.88332 28300 ft 352 kts 91°
2026-04-21 14:39 -5.27768 118.90781 27924 ft 350 kts 91°
2026-04-21 14:39 -5.27838 118.93215 27567 ft 347 kts 90°
2026-04-21 14:40 -5.27902 118.95620 27201 ft 344 kts 90°
2026-04-21 14:40 -5.27968 118.98013 26836 ft 342 kts 91°
2026-04-21 14:40 -5.28039 119.00387 26490 ft 339 kts 91°
2026-04-21 14:40 -5.28109 119.02742 26124 ft 336 kts 91°
2026-04-21 14:41 -5.28180 119.05076 25780 ft 334 kts 91°
2026-04-21 14:41 -5.28250 119.07394 25452 ft 331 kts 91°
2026-04-21 14:41 -5.28317 119.09696 25046 ft 330 kts 91°
2026-04-21 14:41 -5.28390 119.12071 24220 ft 349 kts 93°
2026-04-21 14:42 -5.28964 119.14424 23643 ft 351 kts 118°
2026-04-21 14:42 -5.30542 119.16273 23266 ft 350 kts 142°
2026-04-21 14:42 -5.32640 119.17416 22949 ft 348 kts 160°
2026-04-21 14:42 -5.35004 119.17862 22582 ft 346 kts 179°
2026-04-21 14:43 -5.37368 119.17511 22228 ft 345 kts 199°
2026-04-21 14:43 -5.39461 119.16374 21884 ft 343 kts 219°
2026-04-21 14:43 -5.41012 119.14588 21537 ft 340 kts 241°
2026-04-21 14:43 -5.41839 119.12402 21198 ft 336 kts 261°
2026-04-21 14:44 -5.42017 119.10082 20799 ft 334 kts 269°
2026-04-21 14:44 -5.42018 119.07754 20325 ft 332 kts 272°
2026-04-21 14:44 -5.41948 119.05447 19852 ft 329 kts 273°
2026-04-21 14:44 -5.41854 119.03159 19401 ft 327 kts 273°
2026-04-21 14:45 -5.41744 119.00894 18952 ft 324 kts 277°
2026-04-21 14:45 -5.41175 118.98735 18497 ft 318 kts 297°
2026-04-21 14:45 -5.39979 118.96902 18001 ft 313 kts 316°
2026-04-21 14:45 -5.38302 118.95555 17465 ft 307 kts 334°
2026-04-21 14:46 -5.36333 118.94806 16938 ft 301 kts 352°
2026-04-21 14:46 -5.34271 118.94694 16429 ft 295 kts
2026-04-21 14:46 -5.32306 118.95191 15927 ft 290 kts 26°
2026-04-21 14:46 -5.30597 118.96235 15450 ft 286 kts 42°
2026-04-21 14:47 -5.29345 118.97740 14987 ft 281 kts 63°
2026-04-21 14:47 -5.28746 118.99598 14598 ft 281 kts 85°
2026-04-21 14:47 -5.28718 119.01561 14213 ft 283 kts 90°
2026-04-21 14:47 -5.28746 119.03540 13830 ft 285 kts 90°
2026-04-21 14:48 -5.28778 119.05530 13418 ft 286 kts 90°
2026-04-21 14:48 -5.28809 119.07538 12986 ft 288 kts 90°
2026-04-21 14:48 -5.28838 119.09524 12557 ft 289 kts 90°
2026-04-21 14:48 -5.28865 119.11540 12139 ft 290 kts 90°
2026-04-21 14:49 -5.28893 119.13569 11734 ft 291 kts 90°
2026-04-21 14:49 -5.28921 119.15605 11328 ft 292 kts 90°
2026-04-21 14:49 -5.28949 119.17652 10922 ft 293 kts 90°
2026-04-21 14:49 -5.28976 119.19698 10526 ft 294 kts 90°
2026-04-21 14:50 -5.28994 119.21076 10253 ft 292 kts 90°
2026-04-21 14:50 -5.29029 119.23686 9728 ft 274 kts 90°
2026-04-21 14:50 -5.29055 119.25557 9300 ft 265 kts 90°
2026-04-21 14:50 -5.29080 119.27391 8874 ft 262 kts 90°
2026-04-21 14:51 -5.29103 119.29210 8454 ft 260 kts 90°
2026-04-21 14:51 -5.29129 119.31020 8042 ft 259 kts 90°
2026-04-21 14:51 -5.29155 119.32823 7639 ft 257 kts 90°
2026-04-21 14:51 -5.29180 119.34611 7107 ft 255 kts 90°
2026-04-21 14:52 -5.29203 119.36374 6595 ft 250 kts 90°
2026-04-21 14:52 -5.29225 119.38102 6075 ft 246 kts 90°
2026-04-21 14:52 -5.29249 119.39798 5538 ft 241 kts 90°
2026-04-21 14:52 -5.29172 119.41455 5015 ft 234 kts 77°
2026-04-21 14:53 -5.28519 119.42922 4438 ft 230 kts 53°
2026-04-21 14:53 -5.27338 119.43959 3975 ft 223 kts 31°
2026-04-21 14:53 -5.26025 119.44711 3666 ft 212 kts 31°
2026-04-21 14:53 -5.24759 119.45443 3397 ft 209 kts 31°
2026-04-21 14:54 -5.23561 119.46135 3155 ft 195 kts 31°
2026-04-21 14:54 -5.23277 119.46299 3101 ft 194 kts 31°
2026-04-21 14:54 -5.21440 119.47359 2594 ft 192 kts 30°
2026-04-21 14:54 -5.20285 119.48026 2416 ft 190 kts 30°
2026-04-21 14:55 -5.19145 119.48683 2189 ft 185 kts 30°
2026-04-21 14:55 -5.18077 119.49299 1981 ft 168 kts 30°
2026-04-21 14:55 -5.17116 119.49853 1777 ft 153 kts 30°
2026-04-21 14:55 -5.16209 119.50377 1579 ft 148 kts 30°
2026-04-21 14:56 -5.15618 119.50717 1450 ft 147 kts 30°
2026-04-21 14:56 -5.14736 119.51226 1275 ft 146 kts 30°
2026-04-21 14:56 -5.13560 119.51904 1037 ft 146 kts 31°
2026-04-21 14:56 -5.13262 119.52076 982 ft 146 kts 31°
2026-04-21 14:57 -5.11843 119.52899 693 ft 145 kts 31°
2026-04-21 14:57 -5.10975 119.53408 524 ft 145 kts 32°
2026-04-21 14:57 -5.10102 119.53906 297 ft 144 kts 30°
2026-04-21 14:57 -5.09233 119.54402 87 ft 144 kts 31°
2026-04-21 14:58 -5.08446 119.54858 41 ft 113 kts 30°
2026-04-21 14:58 -5.07921 119.55160 41 ft 64 kts 30°
2026-04-21 14:58 -5.07780 119.55241 42 ft 21 kts 28°
2026-04-21 14:58 -5.07670 119.55171 41 ft 16 kts 299°
2026-04-21 14:59 -5.07634 119.55108 41 ft 10 kts 300°
2026-04-21 14:59 -5.07599 119.55045 41 ft 11 kts 299°
2026-04-21 14:59 -5.07585 119.54968 41 ft 12 kts 259°
2026-04-21 14:59 -5.07629 119.54897 41 ft 13 kts 216°
2026-04-21 15:00 -5.07712 119.54848 41 ft 15 kts 210°
2026-04-21 15:01 -5.07782 119.54807 41 ft 0 kts 210°
2026-04-21 15:01 -5.07792 119.54801 41 ft 4 kts 210°
2026-04-21 15:01 -5.07821 119.54784 41 ft 7 kts 210°
2026-04-21 15:01 -5.07838 119.54764 41 ft 5 kts 264°
2026-04-21 15:02 -5.07820 119.54721 41 ft 4 kts 298°
2026-04-21 15:02 -5.07814 119.54711 39 ft 0 kts 299°